RH
67 59 58 60 55 58 60 62 66 65 59 55 61 62 61 66 70 64 70 43 24 21 25 58 74 80 86 65 45 50 56 52 39 70 84 79 81 60 81 83 74 84 82
65 59 56 56 57 58 59 59 57 61 66 61 57 64 61 64 62 71 68 37 34 39 63 79 66 79 95 73 27 30 32 33 37 69 65 49 66 77 89 86 86 88 82
68 59 56 56 56 57 56 58 56 58 73 63 56 61 62 75 72 82 67 34 62 87 87 90 84 81 85 42 27 29 31 33 37 48 51 41 37 48 47 42 45 49 48
60 55 51 50 52 55 54 53 59 62 63 63 63 57 57 73 77 89 64 40 80 82 85 87 87 62 60 30 30 33 30 29 29 29 29 29 29 29 30 30 29 30 30
72 60 52 46 47 45 48 52 53 55 62 65 66 63 58 65 76 86 54 61 76 84 88 86 75 48 37 31 36 40 39 36 32 30 30 30 30 29 29 29 29 30 30
76 71 58 53 50 47 46 46 45 46 50 60 63 64 68 69 75 81 58 73 87 82 84 69 45 40 32 33 38 44 45 42 37 34 32 31 31 33 34 34 35 35 35
79 78 70 62 60 56 54 50 47 44 41 44 58 68 67 70 78 96 67 79 89 84 81 50 41 35 32 35 37 42 44 42 40 35 33 34 35 37 38 37 36 39 41
79 80 80 70 66 65 61 54 49 36 33 35 51 56 70 67 75 88 73 80 83 80 79 45 43 36 34 34 37 41 46 48 40 35 36 38 40 41 40 40 43 46 48
80 81 84 82 78 73 65 56 44 37 48 53 55 61 66 72 78 90 80 81 85 84 69 47 41 35 32 32 42 44 44 46 44 38 37 40 41 41 41 44 47 50 53
77 85 83 86 92 82 69 58 42 48 75 41 59 67 66 74 81 95 82 80 82 95 58 41 36 30 30 34 41 44 43 43 47 47 39 41 43 43 42 44 49 54 54
70 70 76 85 89 87 69 60 46 55 72 53 64 64 66 72 81 98 82 73 78 67 34 35 32 28 29 34 40 40 42 42 39 44 42 40 42 44 44 46 51 56 56
64 60 70 76 88 88 77 64 51 49 45 74 58 68 81 81 85 97 92 87 77 51 34 35 33 29 30 34 38 37 39 40 41 45 46 44 43 45 46 50 55 60 60
70 65 65 67 72 82 82 76 67 60 54 46 72 65 78 94 95 100 97 98 79 71 83 58 40 37 35 36 37 39 39 40 42 43 47 49 49 48 50 52 60 65 66
64 61 70 69 72 74 82 76 72 68 68 74 43 58 78 84 97 100 100 95 74 80 92 84 45 42 40 38 38 39 40 42 44 44 49 53 56 56 53 55 64 68 65
66 62 58 67 71 75 80 75 76 73 68 71 72 55 56 59 88 97 100 97 87 84 99 83 54 46 40 40 40 39 39 43 47 47 46 60 61 61 59 61 65 68 64
57 66 64 65 66 73 69 71 72 76 74 69 71 67 61 56 56 71 99 100 97 79 92 90 69 53 43 42 41 44 45 49 51 49 46 61 70 70 71 74 67 61 64
41 59 57 62 64 64 67 70 70 70 71 66 67 62 60 62 65 61 61 100 98 100 89 82 81 62 51 43 42 49 52 52 53 55 63 70 73 75 77 74 73 70 74
29 53 56 56 59 67 65 64 75 70 66 69 68 69 67 69 77 73 78 83 99 78 95 75 68 62 53 43 40 46 47 50 55 57 65 74 77 80 80 81 76 76 82
23 55 56 56 57 62 67 60 59 61 66 63 68 71 72 81 77 64 83 65 60 54 76 88 75 63 54 48 50 57 53 55 60 67 69 76 81 82 82 82 80 79 82
20 54 58 60 62 64 65 63 57 46 51 64 67 75 75 82 73 70 55 72 64 60 67 78 81 66 56 57 63 60 58 59 61 71 75 74 82 84 84 85 79 78 78
23 51 54 47 58 63 69 69 65 58 58 60 71 76 73 76 68 85 70 72 77 68 51 67 58 66 71 71 74 68 63 63 65 69 75 77 81 84 82 81 77 79 79
22 46 54 41 53 67 67 60 59 63 66 70 77 81 78 79 80 80 72 80 69 74 78 67 49 66 69 77 74 69 70 64 59 66 76 76 80 80 80 77 77 76 79
38 57 56 64 72 75 70 71 71 74 76 83 83 80 87 82 83 89 87 83 78 77 77 76 71 70 70 75 70 73 78 75 63 63 70 78 82 79 78 76 73 75 76
56 52 68 72 71 74 75 73 80 78 79 73 78 78 79 77 88 90 93 95 84 72 86 83 72 78 82 73 72 78 74 73 72 72 68 70 80 82 80 83 78 79 77
77 77 75 83 79 75 78 83 92 89 85 80 92 88 86 81 78 80 97 93 100 86 90 92 89 91 82 78 80 76 83 83 80 73 74 68 70 73 78 84 78 79 71
97 91 88 91 88 82 82 84 90 97 99 97 93 92 94 96 87 86 82 100 100 92 91 95 91 83 88 79 72 76 76 74 82 81 82 79 74 68 69 83 84 79 70
Wind_Speed
20 21 24 25 22 22 22 22 20 18 17 15 15 14 12 12 10 9 9 8 9 12 15 17 14 14 11 13 12 12 12 11 14 15 14 12 15 17 16 15 17 16 15
15 23 25 24 23 22 21 22 21 18 17 14 13 14 12 12 12 12 10 11 12 15 15 16 14 15 14 11 11 13 13 13 14 13 12 12 14 15 14 15 16 15 14
15 22 24 24 23 22 21 21 19 19 18 15 13 13 12 13 13 14 12 12 13 13 14 15 14 15 12 12 13 14 13 13 13 12 10 10 11 10 9 10 11 11 10
13 20 22 23 22 20 19 19 18 18 17 16 15 13 12 13 14 14 13 15 14 15 15 16 14 15 14 14 13 13 13 12 11 10 9 8 9 9 9 8 8 8 8
15 17 21 22 21 20 19 17 17 17 17 16 15 14 13 14 14 14 15 17 17 18 17 16 11 17 16 14 12 11 11 11 10 9 8 8 8 9 9 8 8 8 8
13 14 20 21 20 18 17 16 16 16 17 17 16 15 15 14 14 16 18 17 19 18 14 13 13 18 16 13 12 11 10 8 9 8 7 7 7 8 8 8 8 8 8
14 14 19 21 20 18 17 16 15 16 17 18 18 18 16 16 16 17 20 19 18 16 15 12 18 19 16 13 11 9 8 8 7 7 7 6 6 7 7 7 7 8 7
12 15 20 21 20 19 17 15 15 15 16 18 19 19 18 17 18 19 21 20 18 16 16 15 20 19 16 14 11 8 7 6 6 6 6 6 6 6 6 6 6 6 7
13 15 19 21 20 19 17 15 14 14 15 17 19 20 19 18 19 19 22 20 17 16 17 19 20 19 17 15 12 9 8 7 6 6 6 5 5 5 4 4 4 5 5
14 15 16 18 19 18 17 15 15 14 13 16 19 19 19 19 19 19 22 20 18 15 20 22 21 19 18 16 12 9 7 7 6 6 5 4 3 3 3 3 2 3 4
15 15 17 17 18 18 17 16 15 14 12 14 17 18 18 20 21 21 21 22 23 16 23 23 21 19 19 17 13 10 7 6 5 5 4 3 2 1 1 1 1 2 3
15 17 17 19 21 20 18 15 13 14 14 13 16 18 17 20 22 23 24 24 23 21 25 23 21 20 20 18 16 13 10 7 5 5 4 3 3 2 2 2 1 1 2
14 17 19 21 23 21 18 18 12 13 17 18 16 18 17 19 24 26 25 25 22 23 23 25 24 22 20 18 16 14 12 10 8 6 5 4 3 3 3 3 3 3 3
14 13 17 21 23 21 20 17 17 16 18 16 15 15 17 19 24 27 28 26 23 27 26 27 26 23 21 19 18 16 15 12 9 8 6 6 4 5 5 4 5 4 4
12 16 18 19 19 18 20 18 19 16 16 16 17 12 7 15 23 27 28 27 26 29 30 29 26 24 22 20 19 18 16 14 12 11 10 8 6 6 6 6 6 6 5
9 13 16 19 21 20 20 21 19 16 17 17 20 22 23 19 20 23 33 33 31 29 31 29 26 24 23 21 20 19 17 17 14 12 12 11 8 8 7 7 7 6 7
14 14 14 20 20 20 20 22 24 25 25 24 22 25 29 30 25 24 20 33 30 28 28 28 27 25 24 23 22 20 19 17 17 14 13 13 12 10 9 8 8 5 7
19 15 15 17 20 21 21 22 28 26 26 30 33 29 27 38 28 28 26 21 29 27 27 27 29 28 27 25 24 22 21 20 18 17 17 16 14 12 10 9 9 7 9
22 17 15 14 18 20 18 14 15 21 26 28 30 34 29 31 29 28 27 23 19 30 25 30 32 31 29 27 25 22 20 20 19 18 19 18 15 15 14 12 13 12 12
24 21 15 15 16 18 19 21 21 21 27 23 22 27 24 27 28 31 30 27 21 29 34 34 34 32 31 28 25 23 22 22 21 21 22 19 19 19 21 17 16 15 13
21 22 17 16 20 20 21 22 25 23 24 23 24 21 22 30 29 34 33 35 33 37 36 34 36 35 34 28 25 24 25 24 24 25 24 23 22 23 20 19 18 18 16
21 20 19 18 21 23 22 20 21 22 22 21 23 25 27 32 34 31 34 35 32 36 38 35 37 37 34 30 29 26 22 27 29 27 25 25 23 21 22 21 21 21 21
20 20 19 21 21 23 22 21 21 22 23 23 23 25 28 31 39 35 36 38 38 39 36 38 40 39 36 34 34 24 11 13 16 28 28 26 26 24 24 23 24 24 24
21 19 19 19 19 21 22 22 20 22 28 25 22 24 25 23 33 38 40 44 41 40 39 40 40 38 37 39 36 35 27 12 11 11 25 29 30 29 27 28 28 27 24
9 12 13 14 18 22 22 23 24 25 28 26 26 26 28 28 29 30 36 46 43 40 40 39 39 40 43 43 38 39 39 32 20 18 20 20 31 29 33 31 32 31 26
7 6 5 7 10 11 13 14 16 23 25 27 32 32 32 32 33 32 34 36 36 37 38 41 42 42 44 43 40 40 41 37 36 31 24 19 23 30 31 37 38 36 31
Wind_Direction
188 189 179 179 178 178 177 177 178 178 174 170 174 177 180 185 187 182 169 161 148 140 139 130 138 127 117 122 127 128 128 120 111 110 113 100 93 98 87 84 85 83 88
192 183 179 180 179 178 179 178 179 183 181 176 174 176 181 183 181 174 169 159 143 134 126 126 135 131 138 123 122 125 122 117 114 109 106 101 103 101 102 99 92 88 88
189 180 180 182 183 181 181 182 182 182 184 182 179 178 181 177 177 175 173 162 147 138 143 143 145 145 144 131 127 125 120 115 112 108 105 99 99 100 90 81 85 88 87
177 180 184 185 187 185 185 184 184 185 186 186 184 181 183 179 180 179 175 165 163 160 158 159 162 160 152 143 136 127 119 113 112 108 101 97 97 96 88 85 82 79 72
178 187 190 188 188 187 186 188 188 191 192 190 190 190 189 186 186 185 179 167 170 169 173 177 176 155 154 149 140 132 125 115 108 104 104 99 96 93 90 86 82 76 69
183 193 196 191 190 190 190 192 196 199 201 200 198 198 194 192 191 189 183 182 177 179 183 184 175 161 158 155 143 133 128 119 111 107 102 101 100 98 97 93 86 77 68
185 194 197 195 194 194 196 199 201 205 208 207 203 201 200 197 194 189 187 188 186 188 191 180 171 165 164 165 155 142 127 121 113 114 110 105 105 103 101 94 84 73 65
206 194 193 195 199 200 202 204 208 210 208 208 204 206 202 200 197 195 190 193 197 199 200 181 175 172 173 175 168 155 144 134 119 117 110 107 109 108 100 90 80 70 60
222 216 195 196 201 203 203 207 211 208 207 206 204 205 204 204 201 198 194 197 199 204 200 186 180 179 180 180 179 174 159 150 129 122 114 114 113 110 98 87 76 64 57
216 219 216 212 206 205 204 205 207 207 209 208 202 204 203 204 203 203 199 200 205 191 192 184 186 184 184 185 189 188 176 165 149 136 122 125 120 113 103 92 67 51 43
214 219 222 216 219 217 210 209 207 207 210 206 202 202 204 204 202 202 207 210 213 199 186 185 188 187 188 189 195 199 201 188 179 166 145 154 156 149 123 91 49 34 31
229 224 227 223 222 219 217 215 213 215 214 212 208 203 205 206 203 203 209 222 225 199 189 188 189 188 190 195 198 204 208 208 201 194 186 191 201 220 244 279 302 358 358
255 237 234 230 229 225 218 214 220 242 228 216 210 209 203 209 207 206 213 224 222 189 194 197 193 192 192 195 203 208 213 218 217 215 215 217 240 243 259 267 278 295 308
242 249 239 233 228 224 216 216 241 231 232 224 222 217 210 210 213 207 218 227 220 195 202 201 197 197 197 198 204 211 219 224 226 221 222 230 231 251 252 256 268 284 298
246 238 237 242 236 220 218 250 234 230 220 231 225 208 212 230 223 223 225 226 220 204 208 204 201 201 202 203 207 214 222 227 230 232 227 231 231 245 248 251 259 274 272
267 238 240 239 233 233 237 236 235 236 226 237 240 254 253 243 236 236 231 216 219 218 216 212 210 207 207 209 212 218 223 228 232 235 228 227 237 245 241 250 254 260 274
268 253 238 241 239 238 240 238 238 238 246 249 252 260 265 253 242 232 244 222 216 221 225 219 213 214 213 214 217 222 226 229 233 236 232 237 237 246 238 246 247 265 279
263 247 252 241 240 235 233 243 236 239 252 258 265 261 271 248 238 226 225 228 214 209 235 227 217 217 219 219 222 226 231 230 236 237 238 242 243 245 239 246 249 263 280
247 246 243 239 239 234 227 228 232 243 249 254 260 263 265 236 228 229 226 224 226 201 218 232 225 222 223 221 226 227 232 234 239 239 237 242 241 240 240 250 256 261 275
234 233 233 241 235 229 237 241 246 254 266 243 246 246 253 238 226 228 229 221 214 231 230 234 232 225 226 227 232 234 236 238 241 239 241 244 243 245 251 247 253 256 267
238 222 222 236 238 240 231 242 241 245 241 243 246 234 236 227 225 232 233 226 212 218 232 240 237 227 228 228 236 239 240 241 241 241 241 241 247 246 246 248 249 263 268
217 214 218 234 239 239 237 248 251 254 255 251 253 248 240 234 238 253 246 240 228 225 231 228 224 225 227 227 229 236 246 245 243 240 236 239 240 243 248 252 252 262 270
201 210 223 227 230 238 246 253 253 246 252 250 251 251 243 241 239 244 245 245 239 229 231 232 224 220 226 229 228 226 217 223 237 238 235 236 237 242 251 253 257 254 267
203 211 213 216 224 236 241 246 245 252 259 260 265 267 253 260 244 243 245 244 241 237 237 233 226 226 230 233 226 229 226 224 210 215 231 233 238 243 247 246 245 248 258
174 199 208 213 226 235 239 245 248 256 256 261 259 270 261 255 249 270 254 234 242 237 233 230 231 233 235 233 228 227 225 228 228 227 227 237 237 243 247 244 244 242 244
141 166 208 212 233 241 240 253 255 260 258 258 261 268 259 257 257 258 260 234 229 234 232 234 236 235 232 234 238 234 232 232 234 238 241 244 252 264 259 242 237 235 246